Showing default

DUCHIFAT 1, 40021

Orbit data source: Space-Track

DUCHIFAT 1, 40021 is a payload satellite owned by Herzliya (IL) in SSO that was launched on Thu, 19 Jun 2014 UTC via a DNEPR launch vehicle from the Orenburg, Russia (OREN). Payload-class satellites include a variety of spacecraft equipped with specific instruments for various scientific and technological missions. These include communications satellites like Starlink; space stations such as the ISS; scientific satellites like the Hubble; Earth observation satellites from companies like Planet Labs, Umbra, and HawkEye 360; GPS; miniature CubeSats for education and research; and military/defense satellites.

Loading next visibility...
Identifier
40021, 2014-033M
Orbit
SSO
Country
Flag of UnknownUnknown / ISRA
Related business
Manufacturer
Herzliya
Mission
Operational Amateur Technology
Bus & Motor
CUBESAT 1U, Unknown motor
Mass
1 kg wet, 1 kg dry
Launch date (UTC)
2014-06-19 (11 years ago)
Launch vehicle
DNEPR
Launch site
Orenburg, Russia (OREN)
Object type
Payload
Rocket body
Debris
Shape & HBR
Box + 4 Ant, 0.3 m
Radar Cross Section
0.046 m², Small (<0.1 m²)

Expand to show TLE details & history
Last TLE update: 8 hours ago

TLE from 8 hours ago
0 DUCHIFAT 1
1 40021U 14033M   25287.88735590  .00032649  00000-0  95497-3 0  9998
2 40021  98.0889 313.8035 0006144 217.9019 142.1791 15.35187437617809
Epoch: 2025-10-14T21:17Z
TLE epoch observation values (Epoch: 2025-10-14T21:17:47.549Z)
Latitude
0.00001°
Longitude
-29.31396°
Altitude
466.775 km
Speed
7.631 km/s
True Right ascension
20h 55m 12s
True Declination
0° 00' 00"
Sunlit
Object was in full shadow at epoch
Visualization orbit readout
Latitude
Unknown
Longitude
Unknown
Altitude
Unknown
Speed
Unknown
Apparent Right ascension
Unknown
Apparent Declination
Unknown
Sunlit
N/A
Visualization observer readout
Local Sidereal Time
00:08:58
Azimuth
Unknown
Elevation
Unknown
Doppler factor
Unknown
Orbital elements
Apogee altitude
461.54 km
Perigee altitude
453.14 km
Semi-major axis
6,835.477 km
Eccentricity
0.00061
Inclination
98.0889°
RAAN
313.8035°
Arg. of periapsis
217.9019°
True anomaly
142.22225°
Mean anomaly
142.1791°
Eccentric anomaly
142.20068°
Mean motion
3.84052 °/min
Orbital period
93.74 mins
BSTAR
0.00095497
Loading maneuver chart data...
Computing Atmospheric mass density...
Loading historical data...
Loading historical data...
Loading historical data...
Loading historical data...
Loading historical data...
Loading historical data...
Loading historical data...

Documentation

Showing up to 5 results
|